This is the latest recevied weather packets stored in our database for station/object KI4MRC. If no packets are shown the sender has not sent any weather packets the latest 10 day(s).
| Time | Temp. | Humidity | Pressure | Rain* | Wind** | Luminosity | Snow |
|---|---|---|---|---|---|---|---|
| 1778015951 | 27.78° C | 72% | 1013.6 hPa | 0 mm | - | 99 W/m² | - |
| 1778015649 | 27.78° C | 72% | 1013.5 hPa | 0 mm | - | 91 W/m² | - |
| 1778015344 | 27.78° C | 73% | 1013.5 hPa | 0 mm | - | 80 W/m² | - |
| 1778015042 | 27.78° C | 71% | 1013.6 hPa | 0 mm | - | 101 W/m² | - |
| 1778014739 | 27.78° C | 70% | 1013.7 hPa | 0 mm | - | 116 W/m² | - |
| 1778014437 | 27.78° C | 69% | 1013.9 hPa | 0 mm | - | 136 W/m² | - |
| 1778014133 | 27.78° C | 69% | 1013.7 hPa | 0 mm | - | 137 W/m² | - |
| 1778013831 | 28.33° C | 69% | 1013.7 hPa | 0 mm | - | 119 W/m² | - |
| 1778013528 | 28.33° C | 68% | 1013.7 hPa | 0 mm | - | 128 W/m² | - |
| 1778013224 | 28.33° C | 68% | 1013.9 hPa | 0 mm | - | 148 W/m² | - |
| 1778012921 | 28.33° C | 69% | 1013.9 hPa | 0 mm | - | 216 W/m² | - |
| 1778012617 | 28.33° C | 68% | 1013.9 hPa | 0 mm | - | 136 W/m² | - |
| 1778012314 | 28.33° C | 68% | 1013.9 hPa | 0 mm | - | 133 W/m² | - |
| 1778012011 | 28.33° C | 68% | 1013.9 hPa | 0 mm | - | 133 W/m² | - |
| 1778011710 | 28.89° C | 67% | 1014 hPa | 0 mm | - | 138 W/m² | - |
| 1778011406 | 28.89° C | 68% | 1014 hPa | 0 mm | - | 214 W/m² | - |
| 1778011102 | 28.33° C | 67% | 1014.1 hPa | 0 mm | - | 189 W/m² | - |
| 1778010799 | 28.89° C | 68% | 1014.1 hPa | 0 mm | - | 153 W/m² | - |
| 1778010496 | 28.89° C | 67% | 1014.2 hPa | 0 mm | - | 142 W/m² | - |
| 1778010193 | 28.89° C | 67% | 1014.3 hPa | 0 mm | - | 100 W/m² | - |
| 1778009888 | 28.89° C | 68% | 1014.1 hPa | 0 mm | - | 127 W/m² | - |
| 1778009587 | 28.89° C | 69% | 1014.2 hPa | 0 mm | - | 510 W/m² | - |
| 1778009285 | 28.33° C | 70% | 1014.3 hPa | 0 mm | - | 163 W/m² | - |
| 1778008982 | 28.89° C | 69% | 1014.5 hPa | 0 mm | - | 228 W/m² | - |
| 1778008680 | 28.89° C | 69% | 1014.5 hPa | 0 mm | - | 246 W/m² | - |
* Rain latest hour (hover to see other rain measurements)
** Current wind speed in m/s (hover to see current wind gust speed)